Temp
10 11 11 11 12 12 11 8 9 11 11 7 3 7 10 11 11 10 11 11 11 12 11 10 10 10 10 9 10 11 9 7 6 10 9 9 9 10 9 8 9 3 3 8
11 11 11 11 12 12 11 7 7 11 11 7 6 9 10 10 10 10 11 11 11 11 11 11 10 10 10 9 10 10 11 8 5 10 9 9 9 9 8 6 6 6 7 8
11 12 11 11 12 12 12 7 8 7 3 4 7 9 10 10 10 10 10 11 11 11 11 8 9 9 10 9 10 11 10 8 9 8 10 8 8 8 8 8 5 6 4 5
10 11 12 11 11 12 11 4 6 5 8 7 8 9 10 10 11 10 10 11 11 11 11 10 10 7 9 9 10 9 9 9 9 8 8 9 10 10 7 6 8 9 9 7
10 10 11 12 12 12 10 7 7 4 5 7 10 8 10 10 10 10 11 11 10 10 11 10 10 9 9 10 9 9 7 9 9 9 9 7 8 8 8 8 9 8 8 9
10 10 10 11 12 12 8 6 6 6 5 7 8 8 10 10 10 10 10 10 10 11 10 9 8 7 7 8 8 7 8 7 7 9 7 7 8 8 8 8 7 10 8 10
10 10 10 10 10 10 10 6 5 7 8 7 8 9 10 10 10 11 9 9 10 9 8 8 7 6 6 6 5 6 6 7 7 7 7 10 12 9 9 8 9 8 9 9
9 9 10 10 10 10 9 7 6 5 7 6 8 9 9 8 8 9 9 8 7 6 8 8 9 7 9 7 5 6 5 6 7 7 6 7 11 10 8 9 11 7 7 9
8 9 9 10 9 9 9 7 7 5 6 7 9 8 8 7 7 7 7 7 6 7 6 8 10 9 9 8 7 5 5 5 7 6 7 9 11 10 10 11 10 9 9 10
8 8 9 9 9 9 8 7 7 6 5 5 7 7 8 5 5 6 6 7 7 6 6 8 6 8 7 8 7 5 7 6 7 6 7 6 7 9 9 11 10 10 10 9
8 8 8 8 9 9 8 7 7 7 3 4 7 8 7 5 5 6 5 6 4 4 7 7 6 6 6 7 6 6 6 6 7 8 7 7 8 10 11 9 9 9 9 9
8 8 8 8 8 8 8 7 7 7 5 5 6 6 6 7 7 4 3 6 4 5 5 4 5 7 3 6 8 5 7 7 6 7 8 8 8 9 9 8 9 9 8 7
8 8 8 8 8 8 8 7 6 6 3 3 4 4 5 6 6 6 6 3 5 4 4 3 4 7 4 6 5 7 6 5 6 7 8 7 8 7 7 7 7 6 5 5
8 7 7 8 7 7 7 7 6 6 3 4 5 5 5 5 5 5 6 5 5 4 2 4 4 6 5 5 6 6 6 5 6 6 7 6 7 6 6 6 5 5 4 4
8 7 6 6 6 6 6 6 5 5 6 5 3 4 4 4 5 5 5 5 3 3 4 3 4 3 4 2 3 3 5 6 6 7 7 7 6 4 5 4 4 4 4 4
4 4 4 4 4 5 5 4 4 4 5 3 4 3 3 3 4 4 3 3 2 2 3 3 2 3 5 4 4 5 6 5 5 6 6 5 3 3 4 4 4 4 4 3
2 2 2 2 3 3 4 4 4 4 5 4 3 3 2 2 2 1 1 2 1 2 2 2 2 3 4 3 3 6 5 5 5 4 4 4 4 4 4 4 4 4 4 3
1 1 1 1 2 2 3 4 4 4 5 4 4 2 2 2 1 2 -0 1 1 1 2 1 2 2 2 4 3 5 4 4 3 3 3 3 3 3 4 3 3 3 3 2
0 1 2 2 3 4 3 4 4 4 4 3 3 0 1 1 1 1 1 1 3 0 2 2 2 3 3 4 4 4 4 4 3 3 3 3 4 4 3 3 3 2 2 2
2 2 3 3 3 3 3 3 3 3 3 3 3 1 2 2 1 2 3 1 3 3 2 2 3 4 3 3 4 3 3 3 2 3 3 4 3 3 2 2 1 1 0 1
3 2 1 2 2 3 3 3 3 2 1 2 2 0 0 0 1 2 2 -0 1 3 2 3 4 1 2 2 2 3 3 2 2 2 2 2 1 0 -0 -0 1 1 1 0
3 2 2 2 2 1 2 2 2 1 1 2 2 2 2 1 0 1 1 0 2 1 1 2 3 2 1 1 2 3 2 2 2 2 1 1 1 1 0 0 1 1 1 1
3 1 -4 -3 -2 -1 0 -2 1 1 -0 -1 1 1 1 0 1 1 1 0 0 -0 -2 0 -1 -0 1 1 1 1 2 2 2 1 1 1 1 1 1 0 2 2 1 1
-2 -6 -2 -5 -6 -2 -3 -4 -4 -4 -4 -3 -3 -0 -1 2 0 1 2 2 1 -1 -3 -2 -3 -0 0 -0 -0 0 2 1 0 0 1 1 1 1 1 1 1 0 -1 1
-6 -7 -4 -9 -4 -6 -2 -2 -2 -2 -5 -3 -2 -3 -1 0 -0 1 -0 -1 1 1 -1 -1 -3 -1 -2 -1 0 -1 -2 -1 -1 0 -1 -0 -0 -1 -0 2 1 1 0 -0
-8 -8 -6 -6 -7 -7 -1 -1 -3 -2 -3 -3 -3 -5 -6 -4 -3 -3 -3 -3 -4 -1 -3 -2 -4 -3 -3 -0 0 1 1 0 0 0 -0 -1 -1 -1 -0 0 -0 -1 -1 -2
-7 -7 -5 -6 -8 -6 -4 -2 -3 -2 -4 -5 -8 -6 -4 -6 -5 -4 -4 -4 -2 -3 -4 -4 -2 -1 -1 -1 -0 -0 0 0 1 -0 -1 -1 -0 -1 -2 -4 -1 -1 -1 -1
Height
833 826 819 813 809 805 803 802 812 802 801 816 835 835 827 824 825 824 823 824 824 824 827 831 833 832 834 835 831 833 837 852 874 849 851 851 850 850 857 868 870 909 912 869
834 828 821 815 808 805 806 808 808 801 800 830 839 828 828 828 827 828 826 826 825 827 829 828 833 834 834 834 833 833 833 851 881 854 854 854 852 853 858 869 876 882 888 868
835 829 823 816 809 806 806 812 819 809 811 826 828 828 830 829 829 828 828 828 827 827 830 837 837 838 835 835 833 832 834 848 848 863 846 852 854 852 858 858 884 875 882 866
836 831 825 819 812 807 809 816 828 830 827 828 828 828 829 830 829 830 830 829 830 832 832 834 836 844 838 836 836 837 840 843 846 847 847 847 842 842 855 863 854 851 843 852
837 833 827 823 815 808 811 819 823 829 834 829 826 833 829 830 830 831 830 830 831 832 833 837 835 841 841 836 839 839 847 848 848 847 845 851 848 843 844 844 841 846 842 836
837 835 830 824 819 813 813 821 823 820 836 833 829 832 830 829 829 832 832 833 834 832 834 834 836 839 842 839 842 847 848 855 857 849 855 850 845 831 832 832 835 827 838 824
836 835 833 828 825 819 817 820 824 826 829 834 830 827 825 827 830 828 830 830 829 838 838 839 840 843 844 844 849 848 854 854 856 861 857 839 813 819 820 825 822 827 821 823
838 835 831 831 827 826 821 822 822 829 831 832 827 826 828 831 832 832 833 835 835 834 835 843 842 851 842 849 856 851 853 854 856 858 868 842 811 818 823 819 814 822 825 823
838 835 834 829 829 827 826 823 823 825 833 830 823 826 827 835 838 838 836 835 836 837 843 839 835 844 838 843 852 856 855 856 856 868 864 838 814 814 814 813 822 819 821 820
837 834 833 832 830 827 827 826 824 825 831 829 826 829 828 831 836 839 840 838 838 839 847 843 853 840 840 837 844 856 851 855 853 860 859 845 825 818 815 815 826 819 819 820
832 833 832 832 829 827 827 829 825 824 829 827 827 827 826 830 833 834 838 840 845 848 843 845 845 846 845 841 840 845 846 854 851 845 854 848 819 815 814 819 819 818 819 820
829 830 830 829 828 827 826 826 826 825 826 826 823 824 823 824 824 829 834 833 837 838 843 848 847 840 855 844 837 841 837 828 836 831 827 816 818 817 818 817 818 819 820 822
823 826 826 827 826 826 826 825 826 826 824 824 826 823 823 824 824 823 829 833 830 831 834 841 843 840 842 840 841 832 830 830 831 826 813 814 811 814 817 818 819 821 822 821
817 821 822 823 824 824 823 825 824 824 827 830 823 822 823 822 822 824 824 825 826 829 832 837 839 836 836 835 827 829 823 828 824 825 815 818 815 815 816 816 819 820 821 821
811 813 817 820 819 820 821 823 825 823 825 826 823 820 820 822 821 823 825 824 827 830 832 838 837 835 833 839 837 831 818 815 821 817 812 811 812 816 817 818 818 818 820 820
801 809 810 816 817 818 822 822 823 825 824 826 826 821 820 820 821 821 824 826 827 829 830 832 832 826 825 833 834 813 809 808 809 810 811 813 816 817 817 818 818 818 818 820
800 805 805 814 813 818 819 823 822 821 824 826 826 821 822 821 822 823 825 826 826 828 830 830 829 827 823 826 827 808 809 809 810 812 813 816 816 817 817 817 817 817 818 818
802 806 807 810 812 817 817 819 822 821 823 827 826 824 825 823 824 825 825 827 828 829 828 830 829 828 827 818 811 809 810 812 813 814 814 813 815 817 818 818 817 817 816 815
804 805 808 810 812 817 815 817 820 821 825 826 827 833 828 822 825 825 824 826 827 830 828 827 826 825 819 806 807 809 811 811 814 815 814 815 815 816 816 817 817 816 814 812
809 808 807 808 812 815 817 817 820 820 820 820 819 822 821 822 823 822 824 826 823 822 823 824 820 809 809 809 808 808 811 812 814 814 815 814 814 815 815 814 814 812 810 808
807 805 808 811 812 815 817 818 819 819 822 816 817 821 823 823 825 822 823 829 828 823 826 822 812 820 810 809 810 810 811 813 814 814 814 814 815 814 813 811 810 809 807 805
806 805 809 811 813 817 818 818 820 822 818 814 813 815 817 821 823 822 824 827 826 828 827 821 813 808 809 811 810 811 811 812 812 812 811 811 811 810 809 807 805 803 801 800
805 807 814 816 824 825 820 831 816 815 815 816 814 816 818 822 823 824 822 826 826 827 838 825 819 810 808 810 810 810 810 810 809 809 809 809 808 807 806 803 800 798 796 793
807 819 821 828 838 822 820 825 824 817 817 818 819 817 819 816 822 821 819 819 822 830 842 833 821 807 805 808 809 808 806 806 807 807 806 806 804 802 800 798 795 793 789 785
814 818 825 836 817 821 815 814 814 814 816 816 819 822 822 820 821 818 824 829 818 812 823 814 807 802 804 804 804 804 804 803 802 801 800 799 797 795 792 790 788 785 781 778
813 818 821 819 822 822 811 811 815 813 814 816 819 830 839 833 829 835 835 834 838 816 812 802 800 799 800 799 799 798 798 798 796 795 793 792 789 787 784 781 778 775 774 770
815 817 809 812 816 814 810 809 811 811 815 826 834 839 830 837 838 834 826 826 809 804 801 797 796 796 796 795 796 795 795 794 792 790 788 786 782 780 778 774 768 767 765 762
Wind_Speed
28 29 29 28 28 19 2 3 2 5 3 4 2 3 2 0 2 3 2 3 2 2 2 2 2 2 0 4 1 2 1 4 3 1 0 1 1 2 3 4 4 2 3 6
26 29 29 29 25 16 5 1 2 3 2 4 2 1 3 2 3 4 4 2 1 2 2 1 1 2 1 4 2 3 2 2 3 5 2 2 3 3 3 4 3 6 5 6
23 26 29 29 25 14 4 2 3 4 4 1 6 4 1 2 2 2 2 2 3 2 2 4 3 1 2 4 2 4 3 3 4 5 4 3 3 4 4 4 3 4 6 5
20 24 27 28 26 11 2 3 0 1 3 4 4 3 2 2 0 2 3 2 1 2 1 2 1 1 2 3 5 3 3 2 2 4 5 4 4 4 8 8 5 7 4 9
18 21 24 26 26 10 7 2 3 3 2 2 3 5 3 4 1 1 1 1 1 2 2 0 3 3 2 3 2 2 3 1 1 3 1 5 6 9 10 12 8 10 8 15
16 19 22 25 25 13 6 4 1 3 2 1 3 2 1 2 3 1 1 1 2 1 2 3 3 3 3 3 5 2 2 3 2 4 4 6 7 11 14 5 5 11 10 7
12 15 18 21 22 18 7 4 1 2 1 1 2 3 3 3 3 1 2 4 4 2 2 3 3 6 6 6 5 2 4 4 2 3 5 3 3 1 3 11 4 9 2 4
10 11 13 16 17 15 13 6 3 2 1 2 1 3 3 3 2 2 1 1 0 2 4 3 3 4 3 3 5 3 2 3 2 1 2 7 1 0 4 5 1 5 7 4
10 9 10 11 13 13 8 12 5 3 4 4 1 3 3 3 2 2 1 1 1 3 2 2 3 4 4 1 2 4 3 4 3 2 1 5 2 2 2 1 3 2 4 3
10 8 7 8 10 10 7 6 8 2 2 3 2 3 4 5 2 2 1 2 1 3 1 1 3 4 4 4 6 4 2 1 4 3 3 8 6 5 2 1 3 2 3 2
13 10 7 7 7 6 6 2 6 3 2 3 2 1 3 2 2 4 4 3 2 2 3 3 3 3 4 2 5 6 7 6 4 4 4 8 3 2 3 2 1 3 2 2
16 11 10 7 6 5 4 0 2 3 2 3 3 3 3 2 3 4 2 3 4 4 3 2 2 2 1 2 3 1 3 6 5 9 6 2 2 1 2 2 2 2 1 2
19 16 12 10 7 6 4 1 2 1 2 2 2 3 3 3 4 4 3 2 2 3 2 3 2 4 4 4 5 4 4 3 3 1 4 5 4 4 3 2 2 2 1 2
22 19 17 14 9 7 5 3 2 1 3 1 3 0 1 2 2 4 4 4 4 5 2 2 2 2 2 3 2 4 4 6 4 5 4 3 1 3 2 2 3 2 3 2
27 24 18 13 10 6 4 5 6 6 2 3 3 3 2 2 3 3 4 6 3 2 2 2 3 2 2 1 1 4 5 6 4 5 3 2 3 4 2 3 2 1 1 3
22 18 16 10 7 5 2 1 4 6 3 2 3 1 1 2 2 4 4 4 2 2 3 3 3 3 4 3 3 5 2 2 4 3 2 2 6 4 2 3 2 1 2 2
17 16 15 11 10 6 4 2 1 8 4 0 3 3 1 1 2 2 2 2 1 2 2 2 2 2 4 2 4 4 3 3 2 2 3 3 3 3 2 2 1 1 2 2
12 8 10 10 6 4 5 6 4 8 4 3 2 3 2 1 1 1 1 2 1 0 1 0 2 1 1 4 4 1 4 5 4 4 4 3 5 2 2 1 1 2 3 5
10 9 6 5 5 4 4 8 10 8 3 2 2 2 2 1 1 1 1 1 1 1 1 2 2 2 4 3 3 4 4 3 5 3 5 4 3 3 3 1 2 3 5 6
8 5 3 2 3 7 8 3 2 2 1 2 2 2 2 1 1 1 2 0 1 2 3 1 3 3 2 1 1 5 4 4 5 3 2 2 2 1 4 4 6 6 7 12
5 2 2 5 6 2 1 1 1 1 2 3 2 4 2 1 2 2 1 2 1 2 2 2 2 3 3 3 4 3 2 1 2 3 3 4 5 5 6 6 8 13 15 15
6 9 7 4 2 2 2 3 0 3 4 2 2 2 1 1 1 2 1 2 2 4 2 2 3 2 2 4 3 3 1 1 3 3 6 8 8 9 10 12 14 17 19 21
6 4 4 3 3 1 5 6 3 3 3 3 3 2 2 1 0 1 2 3 3 2 1 3 4 2 4 5 3 2 3 3 4 6 8 11 13 14 14 16 22 24 24 26
3 3 1 4 2 4 4 4 3 3 2 3 2 2 2 2 2 1 3 2 2 1 1 4 3 5 7 7 5 3 3 4 6 9 13 15 16 19 23 23 25 24 22 27
2 3 3 3 3 1 2 2 0 1 1 2 2 2 1 1 1 1 2 2 3 3 4 3 4 5 5 6 6 7 5 7 7 11 11 16 18 18 21 27 28 27 28 28
3 2 2 1 2 2 3 3 2 2 3 2 2 3 3 1 2 2 5 5 5 3 3 3 3 4 6 7 6 10 14 15 18 20 21 19 19 20 23 27 28 30 28 28
2 2 1 2 1 3 3 4 3 7 2 2 3 3 6 1 2 3 3 5 3 4 3 2 4 6 7 9 11 15 18 19 22 23 24 24 27 26 22 16 28 25 26 27
Wind_Direction
2 4 5 4 1 356 332 107 50 353 36 45 38 70 80 285 8 3 34 97 95 137 133 95 112 125 139 338 313 59 348 124 123 186 303 199 167 184 151 121 218 67 141 275
0 4 5 4 5 8 342 64 243 14 87 101 49 96 58 62 37 20 4 41 39 46 89 62 127 163 317 358 71 131 170 22 49 357 24 14 216 192 119 105 86 196 140 261
1 4 6 7 5 10 29 44 18 342 52 100 118 127 92 81 11 52 40 13 357 78 82 26 163 134 354 360 43 72 92 110 149 184 198 142 206 192 184 137 131 174 223 272
1 5 8 8 6 10 8 36 58 312 4 9 88 74 119 116 358 34 24 25 85 30 32 41 171 173 359 9 358 38 76 152 177 231 228 194 219 196 184 199 186 185 229 217
1 4 9 12 11 19 61 97 116 42 51 13 35 358 177 160 170 167 280 142 133 92 80 257 269 144 234 216 37 83 13 235 114 287 42 217 252 229 210 217 225 252 265 276
2 4 9 13 18 26 77 41 21 104 306 72 103 193 208 243 148 142 34 296 94 96 138 139 144 129 118 144 152 135 84 121 76 276 342 315 287 230 205 191 202 210 215 223
2 8 9 13 16 31 70 68 16 64 184 122 188 171 150 174 204 186 159 133 142 173 89 108 51 48 78 70 38 81 134 116 117 283 341 261 260 291 180 206 226 218 194 176
336 359 11 11 18 20 47 50 78 79 146 168 172 156 119 104 33 82 156 2 255 160 93 64 16 345 359 23 27 21 63 125 105 187 234 292 8 146 141 177 313 204 214 259
313 339 356 12 14 19 18 40 47 94 114 263 137 144 157 162 186 347 91 14 342 40 83 120 172 223 198 273 348 21 62 61 121 121 208 242 289 334 345 335 327 69 117 110
286 315 332 348 4 19 21 42 32 59 95 265 166 178 172 136 119 131 330 191 112 51 93 168 177 225 171 191 175 160 155 188 200 194 269 285 250 264 306 113 217 100 110 135
268 285 296 318 340 8 14 11 34 79 139 267 257 258 140 109 136 154 180 80 331 54 167 182 227 196 234 169 165 176 168 153 187 176 210 271 203 69 176 193 141 122 68 27
254 260 272 285 304 324 353 274 355 357 156 242 234 240 221 208 170 142 162 169 166 194 118 199 131 223 127 194 267 339 208 190 180 186 207 228 266 53 39 100 135 98 60 9
245 247 249 267 273 286 293 289 333 360 63 320 345 242 227 234 221 184 138 260 197 163 177 156 173 245 141 179 238 204 251 174 233 146 210 212 222 143 110 46 102 82 71 283
240 237 241 247 253 256 262 256 218 147 91 198 274 254 246 215 220 230 206 141 115 98 86 135 174 193 187 234 202 185 200 141 193 257 266 82 60 116 134 122 81 52 5 324
235 232 221 221 220 228 252 247 242 216 176 219 258 290 214 236 231 204 198 176 123 131 117 136 228 211 138 270 334 246 183 190 173 232 190 158 151 142 104 119 127 89 344 327
178 185 185 192 182 175 199 284 216 208 197 87 304 341 103 93 115 138 152 171 113 126 161 200 252 240 148 202 241 262 215 200 160 209 173 109 126 125 147 155 178 199 214 258
149 162 158 173 152 166 138 244 352 169 160 26 308 311 349 97 100 58 73 87 119 131 210 217 205 262 171 182 224 252 183 165 106 40 117 81 168 182 161 189 192 302 274 280
159 178 180 175 149 183 207 216 210 154 93 21 273 273 352 175 133 118 41 108 64 135 199 16 208 308 145 250 235 178 138 120 90 63 46 100 120 129 230 267 296 320 314 304
129 140 205 192 187 184 165 171 182 188 178 210 191 202 264 56 103 119 87 116 195 80 213 234 147 215 227 246 182 180 185 195 162 134 114 129 165 229 303 322 346 304 299 305
188 181 113 124 129 136 131 118 148 182 194 265 224 154 219 164 188 127 124 359 214 220 225 120 218 250 233 258 11 122 130 121 133 121 249 278 301 337 308 293 292 286 288 303
180 121 87 113 122 120 74 143 182 173 271 194 208 197 164 294 129 176 198 183 173 233 245 208 238 273 247 147 112 91 123 164 310 288 282 271 255 272 289 297 294 299 299 290
162 125 111 113 61 55 152 199 229 188 233 184 188 146 124 126 123 113 177 156 176 254 172 224 246 244 185 164 172 156 150 262 281 279 283 291 289 288 284 284 287 292 298 299
121 72 61 67 326 127 203 192 209 223 181 183 157 131 136 98 254 221 156 158 211 107 111 234 230 228 164 175 170 235 228 254 293 303 301 300 298 301 290 283 293 296 297 299
83 113 210 149 219 224 193 190 199 254 116 136 113 112 138 133 149 181 214 234 121 119 218 240 246 210 192 201 215 223 251 266 277 287 300 300 299 295 300 298 300 295 286 296
123 96 217 205 216 214 217 179 280 224 166 113 88 64 65 120 153 219 91 17 241 215 225 229 223 216 188 203 220 229 246 265 271 281 274 280 289 287 288 297 301 298 294 291
91 80 75 222 80 275 212 208 250 198 145 100 52 103 61 277 155 81 213 146 227 245 213 230 201 206 209 220 236 245 258 275 287 292 289 285 280 273 279 294 292 291 287 280
89 285 240 143 145 194 193 186 219 158 93 155 109 104 207 78 79 246 196 205 218 214 243 235 224 214 217 227 248 266 272 276 282 287 285 283 289 290 281 273 287 288 289 290